Dades meteomassalio
Diari Summary for Juny 11, 2017 Units:  Metric    English   Both
« Previous Day
Next Day »
Diari Semanal Mensual Anual Personalitzat
  Maxima: Minima: Mijana:
Temperatura: -17.8 °C -8.7 °C -3.1 °C
Rosada: -17.8 °C -10.9 °C -9.6 °C
Humitat: Humidity % 26 % 53 %
Velocitat del vent: 0 km/h 0 km/h 7.1 km/h
Racha vent: 0 km/h - -
Vent:- - East
Pressio: 0 hPa 34293.4 hPa -
Pluja: 0 mm    
Historical Graphs
 
 
Tabular Data for Juny 11, 2017
Time Temperature Dew Point Pressure Wind Wind Speed Wind Gust Humidity Rainfall Rate (Hourly) solar Conditions
-17.8 °C -17.8 °C 0 hPa Calm     Humidity % 0 mm SolarRadiationWatts/m^2 W/m2 Conditions
00:00 -5.2 °C -9.2 °C 34395 hPa Calm     64 % 0 mm 0.0 W/m2 CLR
00:05 -5.3 °C -9 °C 34395 hPa Calm     66 % 0 mm 0.0 W/m2 CLR
00:10 -5.3 °C -9.2 °C 34395 hPa Calm     65 % 0 mm 0.0 W/m2 CLR
00:15 -5.4 °C -9.1 °C 34395 hPa Calm     66 % 0 mm 0.0 W/m2 CLR
00:20 -5.4 °C -9 °C 34395 hPa Calm     67 % 0 mm 0.0 W/m2 CLR
00:25 -5.4 °C -9.1 °C 34395 hPa Calm     67 % 0 mm 0.0 W/m2 CLR
00:30 -5.5 °C -9.3 °C 34395 hPa Calm     65 % 0 mm 0.0 W/m2 CLR
00:35 -5.5 °C -9.3 °C 34395 hPa Calm     65 % 0 mm 0.0 W/m2 CLR
00:40 -5.6 °C -9.4 °C 34395 hPa Calm     65 % 0 mm 0.0 W/m2 CLR
00:45 -5.6 °C -9.3 °C 34395 hPa Calm     66 % 0 mm 0.0 W/m2 CLR
00:50 -5.6 °C -9.1 °C 34395 hPa Calm     68 % 0 mm 0.0 W/m2 CLR
00:55 -5.7 °C -9.2 °C 34395 hPa Calm     67 % 0 mm 0.0 W/m2 CLR
01:00 -5.7 °C -9.1 °C 34395 hPa Calm     68 % 0 mm 0.0 W/m2 CLR
01:05 -5.7 °C -9.1 °C 34395 hPa Calm     68 % 0 mm 0.0 W/m2 CLR
01:10 -5.7 °C -9.3 °C 34395 hPa Calm     67 % 0 mm 0.0 W/m2 CLR
01:15 -5.8 °C -9.2 °C 34395 hPa Calm     68 % 0 mm 0.0 W/m2 CLR
01:20 -5.8 °C -9.1 °C 34395 hPa Calm     69 % 0 mm 0.0 W/m2 CLR
01:25 -5.9 °C -9.2 °C 34395 hPa Calm     69 % 0 mm 0.0 W/m2 CLR
01:30 -6 °C -9.1 °C 34395 hPa Calm     70 % 0 mm 0.0 W/m2 CLR
01:35 -6.1 °C -9.2 °C 34395 hPa Calm     70 % 0 mm 0.0 W/m2 CLR
01:40 -6.1 °C -9.1 °C 34384.8 hPa Calm     71 % 0 mm 0.0 W/m2 CLR
01:45 -6 °C -9.1 °C 34395 hPa Calm     71 % 0 mm 0.0 W/m2 CLR
01:50 -6.1 °C -9.1 °C 34395 hPa Calm     71 % 0 mm 0.0 W/m2 CLR
01:55 -6.1 °C -9.1 °C 34395 hPa Calm     71 % 0 mm 0.0 W/m2 CLR
02:00 -6.2 °C -8.9 °C 34395 hPa Calm     73 % 0 mm 0.0 W/m2 CLR
02:05 -6.2 °C -9 °C 34395 hPa Calm     73 % 0 mm 0.0 W/m2 CLR
02:10 -6.3 °C -9 °C 34395 hPa Calm     74 % 0 mm 0.0 W/m2 CLR
02:15 -6.4 °C -9.1 °C 34395 hPa Calm     74 % 0 mm 0.0 W/m2 CLR
02:20 -6.5 °C -9 °C 34395 hPa Calm     75 % 0 mm 0.0 W/m2 CLR
02:25 -6.6 °C -9.1 °C 34395 hPa Calm     75 % 0 mm 0.0 W/m2 CLR
02:30 -6.6 °C -9.1 °C 34395 hPa Calm     76 % 0 mm 0.0 W/m2 CLR
02:35 -6.7 °C -9.1 °C 34395 hPa Calm     76 % 0 mm 0.0 W/m2 CLR
02:40 -6.8 °C -9.1 °C 34395 hPa Calm     77 % 0 mm 0.0 W/m2 CLR
02:45 -6.8 °C -9.1 °C 34395 hPa Calm     77 % 0 mm 0.0 W/m2 CLR
02:50 -6.9 °C -9.1 °C 34395 hPa Calm     78 % 0 mm 0.0 W/m2 CLR
02:55 -6.9 °C -9 °C 34395 hPa Calm     79 % 0 mm 0.0 W/m2 CLR
03:00 -7.1 °C -9.1 °C 34395 hPa Calm     79 % 0 mm 0.0 W/m2 CLR
03:05 -7.1 °C -9.2 °C 34395 hPa Calm     79 % 0 mm 0.0 W/m2 CLR
03:10 -7.2 °C -9.1 °C 34395 hPa Calm     80 % 0 mm 0.0 W/m2 CLR
03:15 -7.2 °C -9.2 °C 34395 hPa Calm     80 % 0 mm 0.0 W/m2 CLR
03:20 -7.3 °C -9.2 °C 34395 hPa Calm     80 % 0 mm 0.0 W/m2 CLR
03:25 -7.3 °C -9.2 °C 34395 hPa Calm     80 % 0 mm 0.0 W/m2 CLR
03:30 -7.3 °C -9.3 °C 34395 hPa Calm     80 % 0 mm 0.0 W/m2 CLR
03:35 -7.4 °C -9.3 °C 34395 hPa Calm     81 % 0 mm 0.0 W/m2 CLR
03:40 -7.6 °C -9.4 °C 34395 hPa Calm     81 % 0 mm 0.0 W/m2 CLR
03:45 -7.6 °C -9.3 °C 34395 hPa Calm     82 % 0 mm 0.0 W/m2 CLR
03:50 -7.6 °C -9.3 °C 34395 hPa Calm     82 % 0 mm 0.0 W/m2 CLR
03:55 -7.7 °C -9.3 °C 34384.8 hPa Calm     83 % 0 mm 0.0 W/m2 CLR
04:00 -7.7 °C -9.3 °C 34384.8 hPa Calm     83 % 0 mm 0.0 W/m2 CLR
04:05 -7.7 °C -9.3 °C 34395 hPa Calm     83 % 0 mm 0.0 W/m2 CLR
04:10 -7.7 °C -9.4 °C 34395 hPa Calm     83 % 0 mm 0.0 W/m2 CLR
04:15 -7.8 °C -9.4 °C 34384.8 hPa Calm     83 % 0 mm 0.0 W/m2 CLR
04:20 -7.8 °C -9.5 °C 34395 hPa Calm     83 % 0 mm 0.0 W/m2 CLR
04:25 -7.9 °C -9.6 °C 34395 hPa Calm     83 % 0 mm 0.0 W/m2 CLR
04:30 -7.9 °C -9.6 °C 34384.8 hPa Calm     83 % 0 mm 0.0 W/m2 CLR
04:35 -7.9 °C -9.6 °C 34395 hPa Calm     83 % 0 mm 0.0 W/m2 CLR
04:40 -7.9 °C -9.4 °C 34395 hPa Calm     84 % 0 mm 0.0 W/m2 CLR
04:45 -7.9 °C -9.5 °C 34395 hPa Calm     84 % 0 mm 0.0 W/m2 CLR
04:50 -8 °C -9.6 °C 34395 hPa Calm     84 % 0 mm 0.0 W/m2 CLR
04:55 -8.1 °C -9.6 °C 34395 hPa Calm     84 % 0 mm 0.0 W/m2 CLR
05:00 -8.1 °C -9.6 °C 34395 hPa Calm     84 % 0 mm 0.0 W/m2 CLR
05:05 -8.2 °C -9.7 °C 34395 hPa Calm     84 % 0 mm 0.0 W/m2 CLR
05:10 -8.2 °C -9.7 °C 34395 hPa Calm     84 % 0 mm 0.0 W/m2 CLR
05:16 -8.1 °C -9.6 °C 34395 hPa Calm     84 % 0 mm 0.0 W/m2 CLR
05:21 -8.1 °C -9.6 °C 34395 hPa Calm     84 % 0 mm 0.0 W/m2 CLR
05:26 -8.1 °C -9.6 °C 34395 hPa Calm     84 % 0 mm 0.0 W/m2 CLR
05:31 -8.2 °C -9.7 °C 34395 hPa Calm     84 % 0 mm 0.0 W/m2 CLR
05:36 -8.2 °C -9.6 °C 34395 hPa Calm     85 % 0 mm 0.0 W/m2 CLR
05:41 -8.2 °C -9.7 °C 34395 hPa Calm     85 % 0 mm 0.0 W/m2 CLR
05:46 -8.3 °C -9.6 °C 34395 hPa Calm     86 % 0 mm 0.0 W/m2 CLR
05:51 -8.3 °C -9.6 °C 34395 hPa Calm     86 % 0 mm 0.0 W/m2 CLR
05:56 -8.3 °C -9.6 °C 34395 hPa Calm     86 % 0 mm 0.0 W/m2 CLR
06:01 -8.4 °C -9.7 °C 34395 hPa Calm     86 % 0 mm 0.0 W/m2 CLR
06:06 -8.4 °C -9.7 °C 34405.1 hPa Calm     86 % 0 mm 0.0 W/m2 CLR
06:11 -8.4 °C -9.8 °C 34405.1 hPa Calm     86 % 0 mm 0.0 W/m2 CLR
06:16 -8.4 °C -9.8 °C 34405.1 hPa Calm     86 % 0 mm 0.0 W/m2 CLR
06:21 -8.5 °C -9.8 °C 34405.1 hPa Calm     86 % 0 mm 0.0 W/m2 OVC
06:26 -8.6 °C -9.9 °C 34405.1 hPa Calm     86 % 0 mm 0.0 W/m2 OVC
06:31 -8.6 °C -9.9 °C 34405.1 hPa Calm     86 % 0 mm 5.0 W/m2 OVC
06:36 -8.6 °C -9.9 °C 34405.1 hPa Calm     86 % 0 mm 9.0 W/m2 BKN
06:41 -8.6 °C -9.9 °C 34405.1 hPa Calm     86 % 0 mm 11.0 W/m2 BKN
06:46 -8.6 °C -9.9 °C 34405.1 hPa Calm     86 % 0 mm 14.0 W/m2 BKN
06:51 -8.7 °C -9.9 °C 34405.1 hPa Calm     86 % 0 mm 16.0 W/m2 BKN
06:56 -8.7 °C -10.1 °C 34405.1 hPa Calm     86 % 0 mm 19.0 W/m2 BKN
07:01 -8.7 °C -9.9 °C 34405.1 hPa Calm     87 % 0 mm 23.0 W/m2 BKN
07:06 -8.7 °C -9.8 °C 34405.1 hPa Calm     87 % 0 mm 30.0 W/m2 BKN
07:11 -8.6 °C -9.8 °C 34405.1 hPa Calm     87 % 0 mm 39.0 W/m2 BKN
07:16 -8.5 °C -9.7 °C 34405.1 hPa Calm     87 % 0 mm 49.0 W/m2 SCT
07:21 -8.4 °C -9.7 °C 34405.1 hPa Calm     86 % 0 mm 60.0 W/m2 SCT
07:26 -8.3 °C -9.6 °C 34418.7 hPa Calm     86 % 0 mm 70.0 W/m2 FEW
07:31 -8.2 °C -9.7 °C 34418.7 hPa Calm     85 % 0 mm 83.0 W/m2 FEW
07:36 -8.2 °C -9.6 °C 34418.7 hPa Calm     85 % 0 mm 95.0 W/m2 FEW
07:41 -8 °C -9.6 °C 34418.7 hPa Calm     84 % 0 mm 113.0 W/m2 CLR
07:46 -7.8 °C -9.3 °C 34418.7 hPa Calm     84 % 0 mm 127.0 W/m2 CLR
07:51 -7.7 °C -9.4 °C 34418.7 hPa Calm     82 % 0 mm 142.0 W/m2 CLR
07:56 -7.6 °C -9.4 °C 34418.7 hPa Calm     81 % 0 mm 160.0 W/m2 CLR
08:01 -7.4 °C -9.2 °C 34418.7 hPa Calm     81 % 0 mm 176.0 W/m2 CLR
08:06 -7.3 °C -9.2 °C 34418.7 hPa Calm     80 % 0 mm 192.0 W/m2 CLR
08:11 -7.1 °C -9.2 °C 34418.7 hPa Calm     78 % 0 mm 206.0 W/m2 CLR
08:16 -6.8 °C -9.1 °C 34418.7 hPa Calm     77 % 0 mm 221.0 W/m2 CLR
08:21 -6.6 °C -9.1 °C 34418.7 hPa Calm     76 % 0 mm 239.0 W/m2 CLR
08:26 -6.4 °C -9.1 °C 34418.7 hPa Calm     74 % 0 mm 253.0 W/m2 CLR
08:31 -6.2 °C -8.8 °C 34428.8 hPa Calm     74 % 0 mm 267.0 W/m2 CLR
08:36 -5.9 °C -8.8 °C 34428.8 hPa Calm     72 % 0 mm 281.0 W/m2 CLR
08:41 -5.7 °C -8.8 °C 34428.8 hPa Calm     71 % 0 mm 299.0 W/m2 CLR
08:46 -5.6 °C -8.7 °C 34428.8 hPa Calm     70 % 0 mm 315.0 W/m2 CLR
08:51 -5.4 °C -8.7 °C 34428.8 hPa Calm     69 % 0 mm 329.0 W/m2 CLR
08:56 -5.2 °C -8.8 °C 34428.8 hPa Calm     67 % 0 mm 343.0 W/m2 CLR
09:01 -5 °C -8.7 °C 34428.8 hPa Calm     66 % 0 mm 359.0 W/m2 CLR
09:06 -4.8 °C -8.6 °C 34418.7 hPa Calm     66 % 0 mm 374.0 W/m2 CLR
09:11 -4.5 °C -8.4 °C 34418.7 hPa Calm     65 % 0 mm 390.0 W/m2 CLR
09:16 -4.3 °C -8.4 °C 34418.7 hPa Calm     63 % 0 mm 404.0 W/m2 CLR
09:21 -4.2 °C -8.4 °C 34418.7 hPa Calm     63 % 0 mm 420.0 W/m2 CLR
09:26 -4.2 °C -8.4 °C 34418.7 hPa Calm     63 % 0 mm 438.0 W/m2 CLR
09:31 -4.2 °C -8.4 °C 34418.7 hPa Calm     63 % 0 mm 452.0 W/m2 CLR
09:36 -4.1 °C -8.2 °C 34418.7 hPa Calm     63 % 0 mm 466.0 W/m2 CLR
09:41 -3.8 °C -8.3 °C 34418.7 hPa Calm     61 % 0 mm 480.0 W/m2 CLR
09:46 -3.7 °C -8.2 °C 34418.7 hPa Calm     61 % 0 mm 497.0 W/m2 CLR
09:51 -3.4 °C -8.2 °C 34418.7 hPa Calm     59 % 0 mm 512.0 W/m2 CLR
09:56 -3.3 °C -8.1 °C 34418.7 hPa Calm     59 % 0 mm 526.0 W/m2 CLR
10:01 -3.2 °C -8.3 °C 34418.7 hPa Calm     57 % 0 mm 540.0 W/m2 CLR
10:06 -3.2 °C -8 °C 34418.7 hPa Calm     59 % 0 mm 554.0 W/m2 CLR
10:11 -3.1 °C -7.9 °C 34428.8 hPa Calm   0.3 km/h 59 % 0 mm 570.0 W/m2 CLR
10:16 -3 °C -7.9 °C 34428.8 hPa ENE 3.1 km/h 3.1 km/h 58 % 0 mm 584.0 W/m2 CLR
10:21 -2.9 °C -7.9 °C 34418.7 hPa East 3.1 km/h 3.1 km/h 58 % 0 mm 596.0 W/m2 CLR
10:26 -2.8 °C -7.9 °C 34418.7 hPa ENE 9 km/h 9 km/h 57 % 0 mm 610.0 W/m2 CLR
10:31 -2.8 °C -8.1 °C 34428.8 hPa ENE 10.3 km/h 10.3 km/h 56 % 0 mm 624.0 W/m2 CLR
10:36 -2.9 °C -8.1 °C 34428.8 hPa ENE 11.9 km/h 11.9 km/h 57 % 0 mm 636.0 W/m2 CLR
10:41 -2.8 °C -8.1 °C 34418.7 hPa ENE 12.9 km/h 12.9 km/h 56 % 0 mm 650.0 W/m2 CLR
10:46 -2.7 °C -7.8 °C 34418.7 hPa ENE 12.9 km/h 12.9 km/h 57 % 0 mm 663.0 W/m2 CLR
10:51 -2.6 °C -8.2 °C 34418.7 hPa ENE 11.9 km/h 11.9 km/h 54 % 0 mm 677.0 W/m2 CLR
10:56 -2.6 °C -8.2 °C 34418.7 hPa ENE 11.9 km/h 11.9 km/h 54 % 0 mm 687.0 W/m2 CLR
11:01 -2.4 °C -8.3 °C 34418.7 hPa NE 20.9 km/h 20.9 km/h 53 % 0 mm 701.0 W/m2 CLR
11:06 -2.3 °C -8.6 °C 34418.7 hPa NE 15.6 km/h 15.6 km/h 50 % 0 mm 712.0 W/m2 CLR
11:11 -2.2 °C -8.6 °C 34418.7 hPa ENE 6 km/h   50 % 0 mm 722.0 W/m2 CLR
11:16 -2.2 °C -9.1 °C 34418.7 hPa ENE 17.9 km/h 17.9 km/h 47 % 0 mm 737.0 W/m2 CLR
11:22 -2.1 °C -8.7 °C 34418.7 hPa NE 9 km/h 9 km/h 48 % 0 mm 745.0 W/m2 CLR
11:27 -1.9 °C -8.4 °C 34418.7 hPa NNE 12.9 km/h 12.9 km/h 49 % 0 mm 756.0 W/m2 CLR
11:37 -1.7 °C -8.6 °C 34418.7 hPa Calm     47 % 0 mm 779.0 W/m2 CLR
11:42 -1.5 °C -8.4 °C 34418.7 hPa NE 9 km/h   47 % 0 mm 788.0 W/m2 CLR
11:47 -1.4 °C -8.7 °C 34418.7 hPa NE 11.9 km/h 11.9 km/h 45 % 0 mm 798.0 W/m2 CLR
11:52 -1.3 °C -9 °C 34405.1 hPa Calm     43 % 0 mm 807.0 W/m2 CLR
11:57 -1.1 °C -8.8 °C 34405.1 hPa ENE 6 km/h   43 % 0 mm 816.0 W/m2 CLR
12:02 -1.1 °C -9.1 °C 34405.1 hPa NE 9 km/h   42 % 0 mm 826.0 W/m2 CLR
12:07 -1.1 °C -8.8 °C 34405.1 hPa NE 9 km/h 9 km/h 43 % 0 mm 833.0 W/m2 CLR
12:12 -1.1 °C -8.8 °C 34405.1 hPa NE 15 km/h 15 km/h 43 % 0 mm 840.0 W/m2 CLR
12:17 -1.1 °C -9.2 °C 34405.1 hPa Calm     41 % 0 mm 849.0 W/m2 CLR
12:22 -0.9 °C -8.5 °C 34405.1 hPa ENE 15 km/h 15 km/h 44 % 0 mm 856.0 W/m2 CLR
12:27 -0.8 °C -9 °C 34405.1 hPa NE 9 km/h 9 km/h 41 % 0 mm 863.0 W/m2 CLR
12:32 -0.7 °C -8.8 °C 34405.1 hPa Calm     41 % 0 mm 865.0 W/m2 CLR
12:37 -0.6 °C -8.8 °C 34395 hPa NE 15 km/h 15 km/h 41 % 0 mm 874.0 W/m2 CLR
12:42 -0.5 °C -8.9 °C 34395 hPa NE 11.9 km/h 11.9 km/h 40 % 0 mm 881.0 W/m2 CLR
12:47 -0.4 °C -8.7 °C 34395 hPa Calm     41 % 0 mm 888.0 W/m2 CLR
12:52 -0.2 °C -8.4 °C 34395 hPa NE 20.9 km/h 20.9 km/h 41 % 0 mm 891.0 W/m2 CLR
12:57 -0.2 °C -8.4 °C 34395 hPa ENE 12.9 km/h 12.9 km/h 41 % 0 mm 896.0 W/m2 CLR
13:02 -0.1 °C -8.6 °C 34395 hPa NNE 9 km/h   40 % 0 mm 900.0 W/m2 CLR
13:07 -0.1 °C -8.6 °C 34395 hPa ENE 20.9 km/h 20.9 km/h 40 % 0 mm 905.0 W/m2 CLR
13:12 0.1 °C -8.7 °C 34384.8 hPa ENE 11.9 km/h 11.9 km/h 39 % 0 mm 911.0 W/m2 CLR
13:17 0.2 °C -8.8 °C 34384.8 hPa North 11.9 km/h 11.9 km/h 38 % 0 mm 912.0 W/m2 CLR
13:22 0.1 °C -9.1 °C 34384.8 hPa NNE 29.8 km/h 29.8 km/h 37 % 0 mm 914.0 W/m2 CLR
13:27 0.1 °C -8.8 °C 34384.8 hPa NNE 20.9 km/h 20.9 km/h 38 % 0 mm 916.0 W/m2 CLR
13:32 0.2 °C -8.8 °C 34384.8 hPa NE 17.9 km/h 17.9 km/h 38 % 0 mm 919.0 W/m2 CLR
13:37 0.3 °C -8.9 °C 34384.8 hPa ENE 15 km/h 15 km/h 37 % 0 mm 923.0 W/m2 CLR
13:42 0.3 °C -9.1 °C 34371.3 hPa NE 15 km/h 15 km/h 36 % 0 mm 925.0 W/m2 CLR
13:47 0.4 °C -9 °C 34371.3 hPa NE 17.9 km/h 17.9 km/h 36 % 0 mm 925.0 W/m2 CLR
13:52 0.6 °C -8.8 °C 34371.3 hPa ENE 11.9 km/h 11.9 km/h 36 % 0 mm 925.0 W/m2 CLR
13:57 0.8 °C -9.2 °C 34371.3 hPa NNE 26.9 km/h 26.9 km/h 34 % 0 mm 928.0 W/m2 CLR
14:02 0.8 °C -9.2 °C 34371.3 hPa NE 23.8 km/h 23.8 km/h 34 % 0 mm 928.0 W/m2 CLR
14:07 0.8 °C -9.7 °C 34371.3 hPa ENE 6 km/h 6 km/h 32 % 0 mm 928.0 W/m2 CLR
14:12 0.9 °C -10.2 °C 34371.3 hPa NNE 17.9 km/h 17.9 km/h 30 % 0 mm 928.0 W/m2 CLR
14:17 1 °C -10.4 °C 34371.3 hPa NNE 23.8 km/h 23.8 km/h 29 % 0 mm 928.0 W/m2 CLR
14:22 1.1 °C -10.6 °C 34371.3 hPa East 23.8 km/h 23.8 km/h 28 % 0 mm 926.0 W/m2 CLR
14:27 1.1 °C -10.3 °C 34361.1 hPa ENE 12.9 km/h 12.9 km/h 29 % 0 mm 926.0 W/m2 CLR
14:32 1.2 °C -10.8 °C 34361.1 hPa NNE 3.1 km/h   27 % 0 mm 925.0 W/m2 CLR
14:37 1.2 °C -10.5 °C 34361.1 hPa NE 17.9 km/h 17.9 km/h 28 % 0 mm 921.0 W/m2 CLR
14:42 1.3 °C -10.2 °C 34361.1 hPa ENE 15 km/h 15 km/h 29 % 0 mm 918.0 W/m2 CLR
14:47 1.4 °C -10.4 °C 34361.1 hPa NE 23.8 km/h 23.8 km/h 28 % 0 mm 914.0 W/m2 CLR
14:52 1.5 °C -10.6 °C 34347.6 hPa NE 15.6 km/h 15.6 km/h 27 % 0 mm 909.0 W/m2 CLR
14:57 1.6 °C -10.5 °C 34347.6 hPa NNE 17.9 km/h 17.9 km/h 27 % 0 mm 909.0 W/m2 CLR
15:02 1.6 °C -10.6 °C 34347.6 hPa NE 11.9 km/h 11.9 km/h 27 % 0 mm 904.0 W/m2 CLR
15:07 1.6 °C -10.5 °C 34347.6 hPa NE 11.9 km/h 11.9 km/h 27 % 0 mm 898.0 W/m2 CLR
15:12 1.6 °C -10.2 °C 34347.6 hPa NNE 15.6 km/h 15.6 km/h 28 % 0 mm 891.0 W/m2 CLR
15:17 1.7 °C -10.4 °C 34347.6 hPa NE 29.8 km/h 29.8 km/h 27 % 0 mm 888.0 W/m2 CLR
15:22 1.8 °C -9.8 °C 34347.6 hPa East 11.9 km/h 11.9 km/h 29 % 0 mm 882.0 W/m2 CLR
15:27 1.6 °C -10.2 °C 34347.6 hPa ESE 20.9 km/h 20.9 km/h 28 % 0 mm 875.0 W/m2 CLR
15:32 1.4 °C -10.1 °C 34337.4 hPa NE 20.9 km/h 20.9 km/h 29 % 0 mm 870.0 W/m2 CLR
15:37 1.5 °C -10.3 °C 34337.4 hPa North 26.9 km/h 26.9 km/h 28 % 0 mm 860.0 W/m2 CLR
15:42 1.7 °C -10.1 °C 34337.4 hPa NE 15 km/h 15 km/h 28 % 0 mm 860.0 W/m2 CLR
15:47 1.8 °C -10 °C 34337.4 hPa SE 9 km/h 9 km/h 28 % 0 mm 849.0 W/m2 CLR
15:52 1.7 °C -10.1 °C 34337.4 hPa ESE 20.9 km/h 20.9 km/h 28 % 0 mm 840.0 W/m2 CLR
15:57 1.6 °C -10.2 °C 34337.4 hPa East 12.9 km/h 12.9 km/h 28 % 0 mm 830.0 W/m2 CLR
16:02 1.6 °C -10.4 °C 34327.3 hPa NNE 29.8 km/h 29.8 km/h 27 % 0 mm 826.0 W/m2 CLR
16:07 1.8 °C -10.3 °C 34327.3 hPa ENE 17.9 km/h 17.9 km/h 27 % 0 mm 812.0 W/m2 CLR
16:12 1.9 °C -9.9 °C 34327.3 hPa East 15.6 km/h 15.6 km/h 28 % 0 mm 803.0 W/m2 CLR
16:17 1.9 °C -10.2 °C 34327.3 hPa SE 15.6 km/h 15.6 km/h 27 % 0 mm 795.0 W/m2 CLR
16:22 1.8 °C -9.7 °C 34327.3 hPa ENE 6 km/h 6 km/h 29 % 0 mm 788.0 W/m2 CLR
16:27 1.9 °C -10.2 °C 34327.3 hPa East 11.9 km/h 11.9 km/h 27 % 0 mm 775.0 W/m2 CLR
16:32 1.8 °C -10.3 °C 34327.3 hPa NE 20.9 km/h 20.9 km/h 27 % 0 mm 765.0 W/m2 CLR
16:37 1.8 °C -10.7 °C 34327.3 hPa ENE 20.8 km/h 20.8 km/h 26 % 0 mm 756.0 W/m2 CLR
16:42 1.8 °C -10.4 °C 34313.7 hPa NE 6 km/h 6 km/h 27 % 0 mm 745.0 W/m2 CLR
16:47 1.9 °C -9.9 °C 34313.7 hPa ENE 29.8 km/h 29.8 km/h 28 % 0 mm 733.0 W/m2 CLR
16:52 1.7 °C -10.7 °C 34313.7 hPa ENE 20.9 km/h 20.9 km/h 26 % 0 mm 719.0 W/m2 CLR
16:57 1.7 °C -9.8 °C 34313.7 hPa ENE 9 km/h   29 % 0 mm 708.0 W/m2 CLR
17:02 1.6 °C -9.6 °C 34313.7 hPa ESE 15.6 km/h 15.6 km/h 30 % 0 mm 698.0 W/m2 CLR
17:07 1.7 °C -9.8 °C 34313.7 hPa East 9 km/h 9 km/h 29 % 0 mm 682.0 W/m2 CLR
17:12 1.8 °C -10.1 °C 34313.7 hPa ENE 20.9 km/h 20.9 km/h 28 % 0 mm 671.0 W/m2 CLR
17:17 1.6 °C -9.8 °C 34303.6 hPa ENE 29.8 km/h 29.8 km/h 29 % 0 mm 661.0 W/m2 CLR
17:22 1.5 °C -9.9 °C 34303.6 hPa East 10.3 km/h 10.3 km/h 29 % 0 mm 647.0 W/m2 CLR
17:27 1.6 °C -10.2 °C 34303.6 hPa SE 15.6 km/h 15.6 km/h 28 % 0 mm 631.0 W/m2 CLR
17:32 1.6 °C -10.2 °C 34303.6 hPa ESE 20.9 km/h 20.9 km/h 28 % 0 mm 621.0 W/m2 CLR
17:37 1.5 °C -10.2 °C 34303.6 hPa ESE 18.2 km/h 18.2 km/h 28 % 0 mm 608.0 W/m2 CLR
17:42 1.4 °C -10.3 °C 34303.6 hPa ESE 11.9 km/h 11.9 km/h 28 % 0 mm 592.0 W/m2 CLR
17:47 1.4 °C -10.3 °C 34303.6 hPa East 20.9 km/h 20.9 km/h 28 % 0 mm 578.0 W/m2 CLR
17:49 1.4 °C -10.1 °C 34303.6 hPa SE 17.9 km/h 17.9 km/h 29 % 0 mm 575.0 W/m2 CLR
17:54 1.4 °C -10.4 °C 34303.6 hPa ESE 17.9 km/h 17.9 km/h 28 % 0 mm 561.0 W/m2 CLR
17:59 1.4 °C -10.4 °C 34303.6 hPa East 15 km/h 15 km/h 28 % 0 mm 547.0 W/m2 CLR
18:04 1.3 °C -10.4 °C 34303.6 hPa ESE 20.9 km/h 20.9 km/h 28 % 0 mm 534.0 W/m2 CLR
18:09 1.3 °C -10.4 °C 34303.6 hPa ESE 17.9 km/h 17.9 km/h 28 % 0 mm 520.0 W/m2 CLR
18:14 1.3 °C -10.4 °C 34303.6 hPa ESE 17.9 km/h 17.9 km/h 28 % 0 mm 504.0 W/m2 CLR
18:19 1.3 °C -10.4 °C 34293.4 hPa East 20.9 km/h 20.9 km/h 28 % 0 mm 490.0 W/m2 CLR
18:24 1.2 °C -10.2 °C 34293.4 hPa ESE 11.9 km/h 11.9 km/h 29 % 0 mm 475.0 W/m2 CLR
18:29 1.2 °C -9.9 °C 34293.4 hPa ESE 20.9 km/h 20.9 km/h 30 % 0 mm 461.0 W/m2 CLR
18:34 1.1 °C -10.3 °C 34293.4 hPa East 17.9 km/h 17.9 km/h 29 % 0 mm 446.0 W/m2 CLR
18:39 1.1 °C -10.4 °C 34293.4 hPa ENE 15 km/h 15 km/h 29 % 0 mm 429.0 W/m2 CLR
18:44 1 °C -10.1 °C 34293.4 hPa SE 17.9 km/h 17.9 km/h 30 % 0 mm 413.0 W/m2 CLR
18:49 0.9 °C -9.9 °C 34293.4 hPa ESE 26.9 km/h 26.9 km/h 31 % 0 mm 399.0 W/m2 CLR
18:54 0.8 °C -10 °C 34293.4 hPa ESE 20.9 km/h 20.9 km/h 31 % 0 mm 385.0 W/m2 CLR
18:59 0.8 °C -10.3 °C 34293.4 hPa East 18.2 km/h 18.2 km/h 30 % 0 mm 367.0 W/m2 CLR
19:04 0.7 °C -10.1 °C 34293.4 hPa SE 15 km/h 15 km/h 31 % 0 mm 352.0 W/m2 CLR
19:09 0.7 °C -10.1 °C 34293.4 hPa East 15 km/h 15 km/h 31 % 0 mm 338.0 W/m2 CLR
19:14 0.7 °C -9.8 °C 34293.4 hPa ESE 11.9 km/h 11.9 km/h 32 % 0 mm 322.0 W/m2 CLR
19:19 0.7 °C -9.8 °C 34293.4 hPa SE 9 km/h 9 km/h 32 % 0 mm 304.0 W/m2 CLR
19:24 0.7 °C -9.8 °C 34293.4 hPa SSE 11.9 km/h 11.9 km/h 32 % 0 mm 288.0 W/m2 CLR
19:29 0.5 °C -10 °C 34293.4 hPa SE 23.8 km/h 23.8 km/h 32 % 0 mm 274.0 W/m2 CLR
19:34 0.4 °C -9.8 °C 34293.4 hPa ESE 20.9 km/h 20.9 km/h 33 % 0 mm 260.0 W/m2 CLR
19:39 0.4 °C -9.6 °C 34293.4 hPa ESE 20.9 km/h 20.9 km/h 34 % 0 mm 246.0 W/m2 CLR
19:44 0.3 °C -9.6 °C 34303.6 hPa ESE 17.9 km/h 17.9 km/h 34 % 0 mm 227.0 W/m2 CLR
19:49 0.3 °C -9.7 °C 34293.4 hPa ESE 17.9 km/h 17.9 km/h 34 % 0 mm 213.0 W/m2 CLR
19:54 0.2 °C -9.7 °C 34303.6 hPa ESE 15 km/h 15 km/h 34 % 0 mm 197.0 W/m2 CLR
19:59 0.2 °C -9.8 °C 34303.6 hPa SE 15 km/h 15 km/h 34 % 0 mm 181.0 W/m2 CLR
20:05 0.2 °C -9.8 °C 34303.6 hPa ESE 15 km/h 15 km/h 34 % 0 mm 162.0 W/m2 CLR
20:10 0.1 °C -9.8 °C 34303.6 hPa ESE 12.9 km/h 12.9 km/h 34 % 0 mm 144.0 W/m2 CLR
20:15 0.1 °C -9.6 °C 34303.6 hPa ESE 15 km/h 15 km/h 35 % 0 mm 128.0 W/m2 CLR
20:20 -0.1 °C -9.9 °C 34303.6 hPa ESE 11.9 km/h 11.9 km/h 34 % 0 mm 114.0 W/m2 CLR
20:25 -0.1 °C -9.7 °C 34303.6 hPa ESE 11.9 km/h 11.9 km/h 35 % 0 mm 97.0 W/m2 CLR
20:30 -0.2 °C -9.8 °C 34303.6 hPa Calm     35 % 0 mm 84.0 W/m2 CLR
20:35 -0.3 °C -9.9 °C 34303.6 hPa ESE 11.9 km/h 11.9 km/h 35 % 0 mm 72.0 W/m2 FEW
20:40 -0.3 °C -9.7 °C 34303.6 hPa Calm     36 % 0 mm 60.0 W/m2 SCT
20:45 -0.4 °C -9.8 °C 34303.6 hPa SE 2.6 km/h 3.4 km/h 36 % 0 mm 26.0 W/m2 BKN
20:50 -0.5 °C -9.8 °C 34303.6 hPa Calm     36 % 0 mm 39.0 W/m2 BKN
20:55 -0.6 °C -9.9 °C 34303.6 hPa SSE 20.9 km/h 20.9 km/h 36 % 0 mm 30.0 W/m2 BKN
21:00 -0.6 °C -9.9 °C 34303.6 hPa SSE 18.2 km/h 18.2 km/h 36 % 0 mm 23.0 W/m2 BKN
21:05 -0.7 °C -9.9 °C 34303.6 hPa SE 18.2 km/h 18.2 km/h 36 % 0 mm 18.0 W/m2 BKN
21:10 -0.7 °C -10.1 °C 34313.7 hPa SE 17.9 km/h 17.9 km/h 36 % 0 mm 14.0 W/m2 BKN
21:15 -0.8 °C -9.9 °C 34313.7 hPa SE 15 km/h 15 km/h 37 % 0 mm 12.0 W/m2 BKN
21:20 -0.9 °C -10 °C 34313.7 hPa SE 11.9 km/h 11.9 km/h 37 % 0 mm 9.0 W/m2 BKN
21:25 -1 °C -10.1 °C 34313.7 hPa SSE 18.2 km/h 18.2 km/h 37 % 0 mm 7.0 W/m2 BKN
21:30 -1.1 °C -10.1 °C 34313.7 hPa SE 18.2 km/h 18.2 km/h 37 % 0 mm 0.0 W/m2 OVC
21:35 -1.2 °C -10.4 °C 34313.7 hPa SE 17.9 km/h 17.9 km/h 36 % 0 mm 0.0 W/m2 OVC
21:40 -1.2 °C -10.2 °C 34313.7 hPa SE 17.9 km/h 17.9 km/h 37 % 0 mm 0.0 W/m2 OVC
21:45 -1.3 °C -10.3 °C 34313.7 hPa SE 15 km/h 15 km/h 37 % 0 mm 0.0 W/m2 CLR
21:50 -1.3 °C -10.2 °C 34313.7 hPa SE 9 km/h 9 km/h 38 % 0 mm 0.0 W/m2 CLR
21:55 -1.4 °C -10.4 °C 34327.3 hPa Calm   1.8 km/h 37 % 0 mm 0.0 W/m2 CLR
22:00 -1.5 °C -10.3 °C 34327.3 hPa Calm     38 % 0 mm 0.0 W/m2 CLR
22:05 -1.6 °C -10.6 °C 34327.3 hPa Calm     37 % 0 mm 0.0 W/m2 CLR
22:10 -1.7 °C -10.7 °C 34327.3 hPa Calm     37 % 0 mm 0.0 W/m2 CLR
22:15 -1.8 °C -10.7 °C 34327.3 hPa Calm     37 % 0 mm 0.0 W/m2 CLR
22:20 -1.8 °C -10.8 °C 34337.4 hPa Calm     37 % 0 mm 0.0 W/m2 CLR
22:25 -1.9 °C -10.8 °C 34337.4 hPa Calm     37 % 0 mm 0.0 W/m2 CLR
22:30 -2 °C -10.7 °C 34337.4 hPa Calm     38 % 0 mm 0.0 W/m2 CLR
22:31 -2 °C -10.7 °C 34337.4 hPa Calm     38 % 0 mm 0.0 W/m2 CLR
22:36 -2.2 °C -10.9 °C 34337.4 hPa Calm     38 % 0 mm 0.0 W/m2 CLR
22:41 -2.3 °C -10.7 °C 34337.4 hPa Calm     39 % 0 mm 0.0 W/m2 CLR
22:46 -2.3 °C -10.6 °C 34337.4 hPa Calm     40 % 0 mm 0.0 W/m2 CLR
22:51 -2.4 °C -10.9 °C 34347.6 hPa Calm     39 % 0 mm 0.0 W/m2 CLR
22:57 -2.5 °C -10.7 °C 34347.6 hPa Calm     40 % 0 mm 0.0 W/m2 CLR
23:02 -2.6 °C -10.8 °C 34347.6 hPa Calm     40 % 0 mm 0.0 W/m2 CLR
23:07 -2.6 °C -10.8 °C 34347.6 hPa Calm     40 % 0 mm 0.0 W/m2 CLR
23:12 -2.7 °C -10.7 °C 34347.6 hPa Calm     41 % 0 mm 0.0 W/m2 CLR
23:17 -2.7 °C -10.7 °C 34347.6 hPa Calm     41 % 0 mm 0.0 W/m2 CLR
23:22 -2.8 °C -10.6 °C 34347.6 hPa Calm     42 % 0 mm 0.0 W/m2 CLR
23:27 -2.9 °C -10.5 °C 34361.1 hPa Calm     43 % 0 mm 0.0 W/m2 CLR
23:32 -3.1 °C -10.7 °C 34361.1 hPa Calm     43 % 0 mm 0.0 W/m2 CLR
23:37 -3.4 °C -10.2 °C 34361.1 hPa Calm     47 % 0 mm 0.0 W/m2 CLR
23:42 -3.7 °C -10.3 °C 34361.1 hPa Calm     48 % 0 mm 0.0 W/m2 CLR
23:47 -3.9 °C -10.4 °C 34361.1 hPa Calm     48 % 0 mm 0.0 W/m2 CLR
23:52 -3.9 °C -10.6 °C 34361.1 hPa Calm     47 % 0 mm 0.0 W/m2 CLR
23:57 -3.8 °C -10.5 °C 34361.1 hPa ENE 6 km/h   47 % 0 mm 0.0 W/m2 CLR
23:58 -3.8 °C -10.7 °C 34361.1 hPa Calm     46 % 0 mm 0.0 W/m2 CLR
Lo Temps de Massalio
Compliments of Weather Underground - 1.25 mb